DECAYED

OBJECT P, 59111 (Decayed)

Orbit data source: Space-Track

You're viewing an Uncataloged Satellite

Recently launched and/or uncataloged satellites may have evolving metadata. Metadata may include but not limited to: Owner, Maufacturer, Bus, Motor, and Mission.

OBJECT P, 59111 was a satellite in LEO that was launched on Mon, 04 Mar 2024 UTC via an FALCON 9 launch vehicle from the Air Force Western Test Range (AFWTR). Unknown objects in Earth's orbit typically refer to objects detected orbiting the Earth but have not yet been identified or cataloged. These objects could be anything from previously untracked satellites, spent rocket stages, debris from satellite collisions, or even natural meteoroids temporarily captured by Earth's gravity. This object's orbit decayed before it could be identified.

Not visible in the next 10 days
Identifier
59111, 2024-043P
Orbit
Decayed
Country
Flag of TBDTBD
Related business
None
Manufacturer
Unknown
Mission
Decayed Commercial Communications
Bus & Motor
Unknown
Mass
Unknown
Launch date (UTC)
2024-03-04 (2 years ago)
Launch vehicle
FALCON 9
Launch site
Air Force Western Test Range (AFWTR)
Object type
Unknown
Shape & HBR
Box, 0.0 m
Radar Cross Section
0.004 m², Medium (>0.1 m² and < 1m²)

Expand to show TLE details & history
Last TLE update: 6 months ago

TLE from 6 months ago
0 OBJECT P
1 59111U 24043P   25362.11879174  .14029753  26033-5  24723-3 0  9997
2 59111  97.4892 149.6618 0008805 285.7146  74.3186 16.47369876102073
Epoch: 2025-12-28T02:51Z
TLE epoch observation values (Epoch: 2025-12-28T02:51:03.606Z)
Latitude
0.00004°
Longitude
10.06141°
Altitude
147.981 km
Speed
7.818 km/s
True Right ascension
09h 58m 38s
True Declination
0° 00' 00"
Sunlit
Object was in full shadow at epoch
Visualization orbit readout
Latitude
Unknown
Longitude
Unknown
Altitude
Unknown
Speed
Unknown
Apparent Right ascension
Unknown
Apparent Declination
Unknown
Sunlit
N/A
Visualization observer readout
Local Sidereal Time
21:41:55
Azimuth
Unknown
Elevation
Unknown
Doppler factor
Unknown
Orbital elements
Apogee altitude
148.815 km
Perigee altitude
137.331 km
Semi-major axis
6,521.21 km
Eccentricity
0.00088
Inclination
97.4892°
RAAN
149.6618°
Arg. of periapsis
285.7146°
True anomaly
74.41577°
Mean anomaly
74.3186°
Eccentric anomaly
74.36718°
Mean motion
4.12146 °/min
Orbital period
87.35 mins
BSTAR
0.00024723
Loading maneuver chart data...
Computing Atmospheric mass density...
Loading historical data...
Loading historical data...
Loading historical data...
Loading historical data...
Loading historical data...
Loading historical data...
Loading historical data...

Documentation

Showing up to 5 results
|